Weather History for CWRU - January, 2014

Change the Weather History Date:

Sunday, January 5, 2014

  Actual Average Record
Temperature  
Mean Temperature 44 °F -  
Max Temperature 50 °F - - ()
Min Temperature 37 °F - - ()
Degree Days  
Heating Degree Days 22    
Moisture  
Dew Point 28 °F    
Average Humidity 60    
Maximum Humidity 89    
Minimum Humidity 20    
Precipitation  
Precipitation 0.00 in - - ()
Sea Level Pressure  
Sea Level Pressure 30.32 in    
Wind  
Wind Speed 19 mph ()    
Max Wind Speed 36 mph    
Max Gust Speed 41 mph    
T = Trace of Precipitation, MM = Missing Value Source: Averaged Metar Reports

Daily Weather History Graph

Daily Weather History Graph

Search for Another Location

Airport or City:

Trip Planner

Search our weather history database for the weather conditions in past years. The results will help you decide how hot, cold, wet, or windy it might be!

Date:

Astronomy

Jan. 05, 2014 Rise Set
Actual Time 8:30 AM PST 4:44 PM PST
Civil Twilight 7:52 AM PST 5:22 PM PST
Nautical Twilight 7:10 AM PST 6:04 PM PST
Astronomical Twilight 6:31 AM PST 6:43 PM PST
Moon 10:42 AM PST (1/5) 10:55 PM PST (1/5)
Length of Visible Light 9h 30m
Length of Day
8h 14m
Waxing Crescent, 25% of the Moon is Illuminated
Jan 5
Waxing Crescent
Jan 7
First Quarter
Jan 15
Full
Jan 23
Last Quarter
Jan 30
New

Hourly Weather History & Observations

Time (PST) Temp. Windchill Dew Point Humidity Pressure Visibility Wind Dir Wind Speed Gust Speed Precip Events Conditions
12:00 AM 38.7 °F 32.4 °F 31.3 °F 75% 30.40 in - ESE 9.2 mph - N/A   Unknown
1:00 AM 38.3 °F 30.9 °F 32.0 °F 78% 30.39 in - ESE 11.5 mph - N/A   Unknown
2:00 AM 36.5 °F 28.7 °F 33.6 °F 89% 30.38 in - SE 11.5 mph - N/A   Unknown
3:00 AM 38.1 °F 27.6 °F 32.0 °F 79% 30.38 in - ESE 21.9 mph 27.6 mph N/A   Unknown
4:00 AM 39 °F - 33 °F 72% 30.38 in - ESE 20.7 mph - -  
4:00 AM 39.0 °F 29.0 °F 33.1 °F 79% 30.38 in - ESE 20.7 mph - N/A   Unknown
5:00 AM 39.4 °F 29.8 °F 31.6 °F 74% 30.38 in - ESE 19.6 mph - N/A   Unknown
6:00 AM 39.0 °F 29.0 °F 31.6 °F 75% 30.38 in - ESE 20.7 mph - N/A   Unknown
7:00 AM 39.0 °F 28.5 °F 34.0 °F 82% 30.36 in - ESE 23.0 mph - N/A   Unknown
8:00 AM 40.3 °F 30.4 °F 30.4 °F 68% 30.36 in - ESE 21.9 mph 28.8 mph N/A   Unknown
9:00 AM 44.1 °F 34.8 °F 23.5 °F 44% 30.37 in - ESE 25.3 mph 31.1 mph N/A   Unknown
10:00 AM 46 °F - 20 °F 22% 30.38 in - ESE 24.2 mph - -  
10:00 AM 45.7 °F 37.1 °F 19.6 °F 35% 30.38 in - ESE 24.2 mph - N/A   Unknown
11:00 AM 47.5 °F - 18.5 °F 32% 30.36 in - ESE 28.8 mph 39.1 mph N/A   Unknown
12:00 PM 41.4 °F 29.5 °F 33.3 °F 73% 30.33 in - ESE 35.7 mph 41.4 mph N/A   Unknown
1:00 PM 40.6 °F 28.8 °F 33.8 °F 77% 30.32 in - ESE 33.4 mph 39.1 mph N/A   Unknown
2:00 PM 40.5 °F 28.4 °F 33.8 °F 77% 30.30 in - ESE 34.5 mph - N/A   Unknown
3:00 PM 41.2 °F 29.9 °F 35.1 °F 79% 30.30 in - ESE 31.1 mph - N/A   Unknown
4:00 PM 41 °F - 35 °F 73% 30.29 in - ESE 29.9 mph - -  
4:00 PM 41.2 °F 30.1 °F 35.4 °F 80% 30.29 in - ESE 29.9 mph - N/A   Unknown
5:00 PM 41.4 °F 30.7 °F 34.3 °F 76% 30.29 in - ESE 27.6 mph - N/A   Unknown
6:00 PM 48.9 °F - 15.6 °F 27% 30.27 in - ESE 28.8 mph - N/A   Unknown
7:00 PM 50.0 °F - 12.9 °F 23% 30.25 in - ESE 27.6 mph 33.4 mph N/A   Unknown
8:00 PM 50.5 °F - 10.9 °F 20% 30.25 in - ESE 26.5 mph - N/A   Unknown
9:00 PM 50.2 °F - 13.3 °F 23% 30.23 in - ESE 25.3 mph - N/A   Unknown
10:00 PM 47 °F - 26 °F 31% 30.22 in - ESE 25.3 mph - -  
10:00 PM 47.5 °F - 25.9 °F 43% 30.22 in - ESE 25.3 mph - N/A   Unknown
11:00 PM 41.7 °F 31.6 °F 34.9 °F 77% 30.20 in - ESE 25.3 mph - N/A   Unknown